ZHUHAI-1 01 (CAS-4A) (42761 NORAD) Tracking and Keplerian Element Data

This shows tracking and keplerian element data for the satellite.

Feedback or suggestion? Click here.




ElementValue
Catalog42761
NameZHUHAI-1 01 (CAS-4A)
Epoch Orbit38603
Epoch Day160.15899499
Epoch Year2024
RAAN275.9294
Inclination43.0218
Eccentricity0.001206
Argument of Perigee296.8157
Mean Anonmoly63.1462
Mean Motion15.28076934
Decay Rate0.00022837
L11 42761U 17034D 24160.15899499 .00022837 00000+0 82274-3 0 9999
L22 42761 43.0218 275.9294 0012060 296.8157 63.1462 15.28076934386032



Live tracking and technical data element details for ZHUHAI-1 01 (CAS-4A) (NORAD 42761). ZHUHAI-1 01 (CAS-4A) can be tracked NOW for your location showing map with azimuth and elevation plus other details from your city location.







IsCatalogInMostPopularTable: catalog: 42761, numindb: 697
Update: records affected: 1



GetName: 42761 ZHUHAI-1 01 (CAS-4A)

Hit Count: updated at: Sun, 23 Jun 2024 02:21:12 GMT